{"data":{"norad_id":48797,"intl_designator":"2021-045AG","name":"ONEWEB-0236","alt_names":[],"object_type":"PAYLOAD","status":"ACTIVE","operator":null,"country":"UK","launch_date":"2021-05-28","launch_site_code":"VOSTO","launch_vehicle":null,"mission":null,"orbit_class":"UNKNOWN","rcs_meters":null,"size_class":null,"mass_kg":null,"dimensions":null,"purposes":["comms"],"wikipedia_slug":null,"has_3d_model":false,"image_url":null,"decayed_at":null,"tle_current":{"epoch":"2026-05-24T19:49:45.577344Z","epoch_age_seconds":83285,"freshness":"FRESH","line1":"1 48797U 21045AG  26144.82622196 -.00000154  00000+0 -44362-3 0  9993","line2":"2 48797  87.8988 263.8620 0001930 104.3700 255.7645 13.15546484241181","mean_motion":13.15546484,"eccentricity":0.000193,"inclination_deg":87.8988,"raan_deg":263.862,"arg_perigee_deg":104.37,"mean_anomaly_deg":255.7645,"bstar":-0.00044362,"rev_number":24118,"period_min":109.4602142542,"perigee_km":1200.3157796396,"apogee_km":1203.2416271011,"semimajor_km":7579.9157033703,"source":"CELESTRAK","updated_at":"2026-05-25T13:38:22.447970Z"}}}